STARLINK-36320, 68090

Orbit data source: Space-Track

STARLINK-36320, 68090 is a payload satellite owned by SpaceX/Seattle (US) in LEO that was launched on Wed, 04 Mar 2026 UTC via an FALCON 9 launch vehicle from the Air Force Eastern Test Range (AFETR). Payload-class satellites include a variety of spacecraft equipped with specific instruments for various scientific and technological missions. These include communications satellites like Starlink; space stations such as the ISS; scientific satellites like the Hubble; Earth observation satellites from companies like Planet Labs, Umbra, and HawkEye 360; GPS; miniature CubeSats for education and research; and military/defense satellites.

Loading next visibility...
Identifier
68090, 2026-042X
Orbit
LEO
Country
Flag of USUS
Related business
Manufacturer
SpaceX/Seattle
Mission
Operational Commercial Communications
Bus & Motor
STARLINK V2MO, Unknown motor
Mass
575 kg wet, ~530 kg dry
Launch date (UTC)
2026-03-04 (2 months ago)
Launch vehicle
FALCON 9
Launch site
Air Force Eastern Test Range (AFETR)
Object type
Payload
Rocket body
Debris
Shape & HBR
Box + 2 Pan, 17.7 m
Radar Cross Section
36.964 m²

Expand to show TLE details & history
Last TLE update: 6 hours ago

TLE from 6 hours ago
0 STARLINK-36320
1 68090U 26042X   26119.50002315  .00068131  00000-0  12240-2 0  9992
2 68090  53.1589 302.7530 0001008  90.6735 278.5372 15.49271362  5947
Epoch: 2026-04-29T12:00Z
TLE epoch observation values (Epoch: 2026-04-29T12:00:02.000Z)
Latitude
7.31606°
Longitude
-89.22645°
Altitude
419.008 km
Speed
7.662 km/s
True Right ascension
20h 32m 58s
True Declination
7° 16' 14"
Sunlit
Object was in daylight at epoch
Visualization orbit readout
Latitude
Unknown
Longitude
Unknown
Altitude
Unknown
Speed
Unknown
Apparent Right ascension
Unknown
Apparent Declination
Unknown
Sunlit
N/A
Visualization observer readout
Local Sidereal Time
01:14:02
Azimuth
Unknown
Elevation
Unknown
Doppler factor
Unknown
Orbital elements
Apogee altitude
419.8 km
Perigee altitude
418.43 km
Semi-major axis
6,797.252 km
Eccentricity
0.0001
Inclination
53.1589°
RAAN
302.753°
Arg. of periapsis
90.6735°
True anomaly
278.52578°
Mean anomaly
278.5372°
Eccentric anomaly
278.53149°
Mean motion
3.87296 °/min
Orbital period
92.95 mins
BSTAR
0.001224
Loading maneuver chart data...
Computing Atmospheric mass density...
Loading historical data...
Loading historical data...
Loading historical data...
Loading historical data...
Loading historical data...
Loading historical data...
Loading historical data...

Documentation

Showing up to 5 results
|